Weather History for Monarch Pass, CO

Change the Weather History Date:

Thursday, May 15, 2014

  Actual Average (KGUC) Record (KGUC)
Temperature  
Mean Temperature 28 °F -  
Max Temperature 35 °F 62 °F 71 °F (2001)
Min Temperature 21 °F 30 °F 24 °F (1998)
Degree Days  
Heating Degree Days 37    
Moisture  
Dew Point 20 °F    
Average Humidity 72    
Maximum Humidity 86    
Minimum Humidity 56    
Precipitation  
Precipitation 0.00 in - - ()
Sea Level Pressure  
Sea Level Pressure 30.55 in    
Wind  
Wind Speed 19 mph (West)    
Max Wind Speed 30 mph    
Max Gust Speed 36 mph    
Visibility 9 miles    
Events Rain , Snow    
Averages and records for this station are not official NWS values.
T = Trace of Precipitation, MM = Missing Value Source: NWS Daily Summary

Daily Weather History Graph

Daily Weather History Graph

Search for Another Location

Airport:

Trip Planner

Search our weather history database for the weather conditions in past years. The results will help you decide how hot, cold, wet, or windy it might be!

Date:

Astronomy

May. 15, 2014 Rise Set
Actual Time 5:53 AM MDT 8:10 PM MDT
Civil Twilight 5:23 AM MDT 8:39 PM MDT
Nautical Twilight 4:47 AM MDT 9:16 PM MDT
Astronomical Twilight 4:07 AM MDT 9:56 PM MDT
Moon 9:20 PM MDT (5/15) 6:42 AM MDT (5/15)
Length of Visible Light 15h 15m
Length of Day
14h 16m
Full, 99% of the Moon is Illuminated
May 15
Full
May 21
Last Quarter
May 28
New
Jun 5
First Quarter
Jun 12
Full

Hourly Weather History & Observations

Time (MDT) Temp. Windchill Dew Point Humidity Pressure Visibility Wind Dir Wind Speed Gust Speed Precip Events Conditions
12:14 AM 23.0 °F 8.7 °F 14.0 °F 68% 30.56 in 10.0 mi West 18.4 mph - N/A   Clear
12:36 AM 21.2 °F 4.9 °F 12.2 °F 68% 30.56 in 10.0 mi West 23.0 mph - N/A   Clear
12:57 AM 21.2 °F 5.6 °F 14.0 °F 74% 30.55 in 10.0 mi West 20.7 mph - N/A   Clear
1:18 AM 21.2 °F 6.4 °F 14.0 °F 74% 30.55 in 10.0 mi WSW 18.4 mph - N/A   Clear
1:37 AM 21.2 °F 6.8 °F 14.0 °F 74% 30.55 in 10.0 mi WSW 17.3 mph - N/A   Scattered Clouds
1:57 AM 21.2 °F 6.8 °F 14.0 °F 74% 30.54 in 10.0 mi SW 17.3 mph - N/A   Scattered Clouds
2:17 AM 21.2 °F 6.0 °F 14.0 °F 74% 30.53 in 10.0 mi WSW 19.6 mph - N/A   Scattered Clouds
2:35 AM 21.2 °F 5.6 °F 14.0 °F 74% 30.53 in 10.0 mi WSW 20.7 mph - N/A   Scattered Clouds
2:56 AM 21.2 °F 5.6 °F 14.0 °F 74% 30.52 in 10.0 mi WSW 20.7 mph - N/A   Scattered Clouds
3:17 AM 21.2 °F 4.2 °F 15.8 °F 80% 30.52 in 10.0 mi WSW 25.3 mph - N/A   Scattered Clouds
3:37 AM 21.2 °F 5.2 °F 15.8 °F 80% 30.52 in 10.0 mi WSW 21.9 mph 27.6 mph N/A   Mostly Cloudy
3:58 AM 21.2 °F 5.6 °F 15.8 °F 80% 30.51 in 10.0 mi WSW 20.7 mph - N/A   Overcast
4:17 AM 21.2 °F 6.0 °F 15.8 °F 80% 30.51 in 10.0 mi WSW 19.6 mph 24.2 mph N/A   Overcast
4:35 AM 21.2 °F 4.5 °F 15.8 °F 80% 30.51 in 10.0 mi WSW 24.2 mph - N/A   Overcast
4:54 AM 21.2 °F 4.9 °F 15.8 °F 80% 30.50 in 10.0 mi WSW 23.0 mph 28.8 mph N/A   Overcast
5:17 AM 21.2 °F 5.2 °F 15.8 °F 80% 30.50 in 10.0 mi WSW 21.9 mph 26.5 mph N/A   Mostly Cloudy
5:37 AM 21.2 °F 4.5 °F 15.8 °F 80% 30.50 in 10.0 mi WSW 24.2 mph - N/A   Scattered Clouds
5:58 AM 21.2 °F 4.5 °F 15.8 °F 80% 30.50 in 10.0 mi West 24.2 mph - N/A   Scattered Clouds
6:14 AM 21.2 °F 4.2 °F 15.8 °F 80% 30.50 in 10.0 mi West 25.3 mph 28.8 mph N/A   Mostly Cloudy
6:37 AM 21.2 °F 4.5 °F 15.8 °F 80% 30.51 in 10.0 mi West 24.2 mph - N/A Snow Light Snow
6:53 AM 21.2 °F 6.8 °F 15.8 °F 80% 30.51 in 10.0 mi WSW 17.3 mph - N/A   Overcast
7:18 AM 21.2 °F 6.4 °F 17.6 °F 86% 30.52 in 1.0 mi WSW 18.4 mph - N/A Snow Light Snow
7:37 AM 21.2 °F 6.0 °F 17.6 °F 86% 30.52 in 10.0 mi SW 19.6 mph 24.2 mph N/A   Overcast
7:58 AM 23.0 °F 9.2 °F 17.6 °F 80% 30.52 in 10.0 mi SW 17.3 mph - N/A   Overcast
8:17 AM 23.0 °F 8.3 °F 17.6 °F 80% 30.53 in 10.0 mi SW 19.6 mph 28.8 mph N/A   Overcast
8:35 AM 23.0 °F 8.7 °F 17.6 °F 80% 30.53 in 10.0 mi SW 18.4 mph - N/A   Overcast
8:55 AM 23.0 °F 7.6 °F 19.4 °F 86% 30.53 in 10.0 mi SW 21.9 mph 26.5 mph N/A   Mostly Cloudy
9:18 AM 24.8 °F 9.3 °F 19.4 °F 80% 30.53 in 10.0 mi SW 24.2 mph 32.2 mph N/A   Scattered Clouds
9:31 AM 24.8 °F 10.3 °F 19.4 °F 80% 30.54 in 10.0 mi WSW 20.7 mph 29.9 mph N/A   Mostly Cloudy
9:58 AM 26.6 °F 13.8 °F 21.2 °F 80% 30.54 in 10.0 mi WSW 17.3 mph 24.2 mph N/A   Overcast
10:16 AM 28.4 °F 15.4 °F 21.2 °F 74% 30.55 in 10.0 mi WSW 19.6 mph 27.6 mph N/A   Overcast
10:32 AM 28.4 °F 15.8 °F 21.2 °F 74% 30.55 in 10.0 mi SW 18.4 mph 24.2 mph N/A   Overcast
10:58 AM 28.4 °F 17.5 °F 21.2 °F 74% 30.56 in 10.0 mi SW 13.8 mph - N/A   Overcast
11:12 AM 30.2 °F 19.8 °F 21.2 °F 69% 30.55 in 10.0 mi SSW 13.8 mph - N/A   Overcast
11:37 AM 30.2 °F 18.9 °F 21.2 °F 69% 30.56 in 10.0 mi West 16.1 mph 25.3 mph N/A   Overcast
11:53 AM 32.0 °F 22.1 °F 21.2 °F 64% 30.56 in 10.0 mi West 13.8 mph 19.6 mph N/A   Overcast
12:15 PM 32.0 °F 20.5 °F 19.4 °F 60% 30.56 in 10.0 mi WSW 18.4 mph 29.9 mph N/A   Overcast
1:16 PM 32.0 °F 19.2 °F 21.2 °F 64% 30.55 in 10.0 mi West 23.0 mph 34.5 mph N/A   Overcast
1:38 PM 32.0 °F 20.5 °F 21.2 °F 64% 30.55 in 5.0 mi West 18.4 mph 29.9 mph N/A Snow Light Snow
1:53 PM 33.8 °F 23.2 °F 21.2 °F 60% 30.56 in 7.0 mi NW 17.3 mph 26.5 mph N/A   Overcast
2:18 PM 33.8 °F 24.3 °F 21.2 °F 60% 30.56 in 5.0 mi West 13.8 mph 24.2 mph N/A Snow Light Snow
2:35 PM 35.6 °F 26.2 °F 21.2 °F 56% 30.56 in 10.0 mi WNW 15.0 mph 23.0 mph N/A   Overcast
2:52 PM 33.8 °F 23.9 °F 21.2 °F 60% 30.56 in 10.0 mi NW 15.0 mph 21.9 mph N/A   Overcast
3:18 PM 32.0 °F 23.6 °F 21.2 °F 64% 30.56 in 3.0 mi NW 10.4 mph 27.6 mph N/A Snow Light Snow
3:32 PM 32.0 °F 27.5 °F 23.0 °F 69% 30.56 in 3.0 mi NW 4.6 mph - N/A Snow Light Snow
3:57 PM 33.8 °F 24.3 °F 23.0 °F 65% 30.56 in 5.0 mi NW 13.8 mph 26.5 mph N/A   Haze
4:17 PM 35.6 °F 26.2 °F 21.2 °F 56% 30.55 in 10.0 mi West 15.0 mph 19.6 mph N/A   Overcast
4:27 PM 33.8 °F 22.8 °F 21.2 °F 60% 30.56 in 10.0 mi West 18.4 mph 26.5 mph N/A   Overcast
4:56 PM 33.8 °F 23.5 °F 23.0 °F 65% 30.56 in 5.0 mi NW 16.1 mph 26.5 mph N/A Rain Light Rain
5:07 PM 33.8 °F 23.9 °F 23.0 °F 65% 30.56 in 5.0 mi West 15.0 mph 19.6 mph N/A Rain Light Rain
5:29 PM 33.8 °F 23.5 °F 21.2 °F 60% 30.56 in 10.0 mi WNW 16.1 mph 25.3 mph N/A Rain Light Rain
5:58 PM 33.8 °F 24.3 °F 23.0 °F 65% 30.56 in 7.0 mi NW 13.8 mph 20.7 mph N/A Rain Light Rain
6:18 PM 32.0 °F 22.5 °F 23.0 °F 69% 30.56 in 10.0 mi WNW 12.7 mph 19.6 mph N/A   Scattered Clouds
6:37 PM 32.0 °F 23.0 °F 23.0 °F 69% 30.56 in 10.0 mi WNW 11.5 mph - N/A   Mostly Cloudy
6:55 PM 32.0 °F 22.5 °F 23.0 °F 69% 30.56 in 10.0 mi West 12.7 mph - N/A   Overcast
7:15 PM 32.0 °F 19.8 °F 24.8 °F 75% 30.56 in 4.0 mi West 20.7 mph 25.3 mph N/A Snow Light Snow
7:32 PM 32.0 °F 22.1 °F 23.0 °F 69% 30.56 in 10.0 mi WNW 13.8 mph 24.2 mph N/A   Overcast
7:55 PM 32.0 °F 19.8 °F 23.0 °F 69% 30.56 in 10.0 mi West 20.7 mph 24.2 mph N/A   Overcast
8:16 PM 32.0 °F 19.8 °F 23.0 °F 69% 30.57 in 10.0 mi West 20.7 mph 28.8 mph N/A   Overcast
8:34 PM 32.0 °F 18.9 °F 23.0 °F 69% 30.57 in 10.0 mi West 24.2 mph 31.1 mph N/A   Overcast
8:58 PM 32.0 °F 20.5 °F 23.0 °F 69% 30.57 in 10.0 mi West 18.4 mph 21.9 mph N/A   Overcast
9:15 PM 32.0 °F 19.2 °F 23.0 °F 69% 30.57 in 10.0 mi West 23.0 mph - N/A   Mostly Cloudy
9:37 PM 32.0 °F 19.2 °F 23.0 °F 69% 30.58 in 10.0 mi West 23.0 mph - N/A   Mostly Cloudy
9:57 PM 32.0 °F 19.2 °F 23.0 °F 69% 30.58 in 10.0 mi West 23.0 mph 31.1 mph N/A   Mostly Cloudy
10:13 PM 32.0 °F 19.2 °F 23.0 °F 69% 30.58 in 10.0 mi West 23.0 mph - N/A   Scattered Clouds
10:35 PM 32.0 °F 19.8 °F 23.0 °F 69% 30.58 in 10.0 mi West 20.7 mph - N/A   Scattered Clouds
10:58 PM 32.0 °F 19.5 °F 23.0 °F 69% 30.57 in 10.0 mi West 21.9 mph - N/A   Scattered Clouds
11:14 PM 32.0 °F 18.1 °F 23.0 °F 69% 30.56 in 10.0 mi West 27.6 mph - N/A   Scattered Clouds
11:35 PM 32.0 °F 17.6 °F 23.0 °F 69% 30.55 in 10.0 mi West 29.9 mph 35.7 mph N/A   Clear
11:50 PM 32.0 °F 18.1 °F 23.0 °F 69% 30.54 in 10.0 mi West 27.6 mph - N/A   Clear